Wind_Speed
14 17 21 24 26 25 28 29 31 34 37 40 40 39 38 37 35 35 36 37 37 39 41 44 44 43 43 42 43 44 46 47 48 50 51 52 53 54 55 56 57 58 58 59
11 14 16 18 21 23 24 28 30 33 36 39 40 40 40 39 37 35 34 35 37 37 37 39 41 41 41 41 42 43 45 46 47 49 50 52 53 55 56 56 57 58 59 58
9 11 12 14 16 18 20 23 26 30 33 36 38 37 37 35 34 34 33 32 34 35 37 37 37 37 38 40 42 43 44 45 45 46 48 49 50 52 53 54 54 53 53 52
8 10 12 11 12 15 18 20 22 25 27 30 32 33 32 32 32 32 30 29 29 29 30 32 34 37 39 41 41 42 43 45 46 46 47 47 47 48 48 49 48 48 47 47
8 9 10 12 14 15 17 19 20 22 23 25 27 29 29 28 28 28 28 27 27 28 29 30 32 34 36 38 40 41 42 44 45 46 46 47 47 46 46 46 46 46 46 47
9 10 10 11 14 15 16 18 18 19 19 19 20 21 23 23 23 24 24 25 25 27 27 28 29 31 34 36 39 40 41 42 43 43 43 43 43 43 44 44 45 45 45 45
11 11 11 11 13 15 16 16 17 17 17 17 17 17 17 18 19 20 21 22 23 24 26 28 29 30 32 33 35 36 38 39 39 40 40 40 41 42 42 43 43 43 43 44
13 12 11 12 12 13 14 14 15 14 14 14 14 15 15 16 17 18 18 20 21 23 25 26 28 29 30 32 33 34 35 36 37 37 38 39 39 40 40 41 41 41 41 42
13 12 11 12 12 12 12 12 12 11 11 12 12 13 14 15 16 17 18 19 21 22 23 24 25 27 28 29 30 31 32 34 35 36 36 37 37 38 38 37 37 37 37 37
14 12 11 11 11 11 11 10 10 10 10 10 11 11 12 13 14 16 17 18 20 21 21 22 24 25 26 27 28 29 31 32 33 33 33 34 33 33 33 33 33 32 32 31
16 14 12 11 11 11 10 9 8 8 9 9 9 10 11 12 14 15 16 17 18 19 20 21 22 23 24 25 27 28 29 29 29 29 30 29 29 28 28 27 26 25 24 24
17 15 14 13 11 10 9 8 8 8 8 8 9 10 11 12 13 14 15 16 17 18 18 19 19 20 22 23 24 25 25 25 25 24 23 22 22 22 20 19 18 17 16 16
18 16 14 13 11 10 8 8 8 8 8 8 9 10 11 11 12 13 14 15 16 16 16 16 17 18 20 21 21 22 22 21 20 18 17 16 15 15 14 13 12 11 10 9
18 16 14 12 10 9 8 8 8 9 8 8 9 9 10 11 12 13 14 15 15 14 15 16 16 17 18 19 19 20 19 18 17 15 14 13 12 11 11 10 9 7 7 6
18 15 13 11 9 9 8 8 8 8 8 8 8 9 10 10 12 13 14 14 13 13 14 14 15 16 17 17 18 18 18 17 16 15 14 13 12 11 10 9 8 7 7 8
17 15 12 10 9 8 8 7 7 7 7 7 8 9 9 10 12 13 14 13 13 13 14 14 15 16 16 16 16 17 16 16 15 15 14 14 13 12 11 10 10 9 10 11
17 14 12 10 9 8 7 6 6 6 6 7 8 8 9 11 12 13 14 14 14 15 15 15 15 15 15 15 15 16 15 15 15 14 14 14 14 13 13 13 12 12 12 13
16 14 11 9 8 7 6 5 5 6 6 6 7 9 10 11 12 14 14 15 15 15 15 15 14 14 14 14 14 14 14 14 14 14 15 14 14 14 15 14 14 14 14 14
16 13 11 9 7 6 5 5 5 5 5 6 8 9 10 11 12 14 15 15 15 14 15 15 14 13 13 13 12 12 12 13 13 13 14 14 14 14 14 15 14 14 14 14
16 13 10 8 7 5 4 4 4 4 5 6 7 9 10 12 13 14 15 16 15 15 15 15 15 14 12 11 10 10 10 11 11 12 13 13 13 13 13 13 13 13 13 13
15 13 10 7 6 5 4 3 3 4 5 5 7 9 11 12 14 16 17 17 16 16 16 16 15 14 11 9 9 9 9 9 10 10 11 11 11 11 11 11 11 11 11 11
15 13 9 7 5 4 3 2 2 3 4 5 7 8 10 12 14 16 17 17 16 16 17 17 16 13 11 9 8 8 8 8 8 9 9 9 9 9 9 8 8 9 9 9
15 12 9 6 4 3 3 2 2 2 3 4 6 8 10 12 14 16 17 17 17 16 17 17 16 15 12 10 9 8 7 7 8 8 8 8 8 8 7 7 7 7 7 8
14 12 9 6 4 3 2 2 2 2 2 3 5 7 9 11 13 15 16 17 17 16 16 17 17 16 15 12 10 8 7 7 7 7 7 7 7 7 7 6 6 5 6 6
13 11 8 5 3 3 2 2 2 2 2 3 4 5 8 10 12 14 16 17 17 16 16 16 16 17 16 14 11 9 8 7 7 7 7 7 7 6 6 6 6 6 6 6
13 10 8 5 4 3 3 3 3 3 2 2 3 4 6 8 11 13 16 17 18 17 15 14 14 15 17 17 15 13 12 10 9 8 8 7 7 7 7 7 7 7 7 7
12 10 7 5 4 5 5 5 4 4 3 3 3 3 4 6 8 11 14 15 15 15 14 12 13 15 17 18 18 17 16 14 13 12 10 10 10 9 9 9 9 9 9 9
Wind_Direction
236 235 235 238 239 239 237 236 237 237 239 243 247 250 254 258 259 259 261 261 261 258 259 259 259 259 261 263 265 266 268 269 270 272 273 273 275 277 279 280 281 281 282 282
253 253 248 247 243 241 241 240 241 243 245 246 250 254 257 260 262 265 266 269 268 266 266 265 263 262 263 266 268 268 268 268 268 269 271 272 273 275 276 277 278 279 280 281
261 267 270 262 250 248 249 247 250 250 251 251 254 258 262 268 269 270 273 275 274 270 271 269 269 268 268 270 270 268 266 265 267 268 269 271 273 274 275 277 278 279 281 283
283 282 277 275 269 266 263 259 262 261 260 260 260 263 269 274 277 278 280 282 280 278 277 277 275 274 273 271 268 268 269 271 273 273 275 276 278 279 279 281 283 283 284 285
311 300 293 288 286 282 275 271 271 275 272 270 270 271 277 280 282 283 283 285 285 284 282 278 275 275 274 274 274 274 276 278 279 280 281 283 284 286 286 285 285 285 285 284
326 316 306 296 290 288 283 281 280 281 280 280 281 283 283 285 287 289 290 290 288 285 281 280 279 278 278 279 279 280 282 284 285 286 286 286 286 286 285 284 284 283 283 283
333 327 320 307 297 292 288 288 289 288 287 288 287 288 289 290 291 292 292 290 286 285 283 284 285 285 285 286 287 288 290 290 290 289 288 287 286 285 285 284 284 283 283 283
337 331 324 313 302 295 294 292 292 292 291 289 289 292 292 294 295 296 295 293 291 291 291 290 290 291 292 293 293 293 293 293 292 292 291 290 288 287 286 285 285 285 284 284
338 333 322 314 307 304 301 298 296 295 296 295 295 295 297 298 299 299 298 298 298 298 298 297 297 298 298 298 298 298 297 297 296 294 293 292 290 289 289 288 287 287 287 286
338 334 327 320 314 311 306 302 302 302 301 300 300 300 302 304 303 303 302 303 304 304 303 303 304 304 304 304 304 304 304 302 300 298 296 294 292 292 291 291 290 290 289 289
341 335 329 322 320 317 312 311 312 312 309 307 307 308 308 309 309 310 311 311 311 311 311 311 312 312 312 312 312 312 310 308 306 303 299 296 295 296 296 295 294 294 294 294
342 337 332 329 328 327 321 318 320 317 314 316 317 318 318 319 320 320 320 319 318 318 319 321 322 323 324 324 323 322 321 318 315 312 308 304 302 302 303 304 304 303 304 305
342 340 335 332 331 330 326 324 327 327 326 326 328 328 329 330 330 329 328 327 327 328 331 333 335 337 337 337 337 337 335 334 332 329 326 322 319 316 314 315 316 316 319 323
343 342 339 335 332 330 329 329 332 336 338 337 337 339 340 340 339 338 337 337 338 340 341 341 341 343 344 346 347 348 348 349 350 349 347 345 343 341 340 340 343 348 357 11
345 345 343 339 337 335 334 335 337 341 345 348 350 350 349 347 346 347 347 348 349 348 347 348 347 348 349 351 353 356 358 0 2 4 5 5 5 4 6 9 17 30 47 64
348 347 346 344 341 341 342 342 344 347 353 356 357 357 355 354 355 355 357 357 355 354 354 354 353 354 356 358 1 4 6 9 13 16 19 22 25 27 31 38 47 60 72 81
349 349 348 346 342 343 346 349 352 357 1 2 3 2 0 359 360 1 0 359 358 357 356 354 355 358 0 2 6 10 14 19 23 27 29 32 37 42 48 55 63 71 78 84
350 349 347 345 344 345 349 354 359 3 6 6 7 6 5 4 3 2 0 360 359 356 354 354 355 359 2 5 9 13 20 26 31 35 37 41 45 49 54 59 66 73 80 87
350 349 346 346 346 346 353 2 7 9 8 9 8 8 8 6 4 3 2 0 357 355 356 357 358 358 358 1 6 15 24 27 32 36 40 43 47 51 55 61 67 74 81 88
349 349 347 346 347 348 353 5 10 11 12 11 11 10 9 10 9 7 4 2 360 359 359 359 358 356 355 1 10 21 26 29 32 36 40 44 47 51 56 62 69 75 81 87
347 348 347 347 348 350 354 3 11 12 11 11 12 13 13 14 13 11 8 5 3 2 1 0 360 0 2 7 17 25 27 29 32 36 40 43 46 51 58 65 71 76 82 88
345 346 346 345 346 350 350 353 4 6 6 10 12 13 15 16 15 13 11 10 8 8 8 8 9 9 12 16 22 25 25 27 33 37 40 43 48 54 60 67 73 78 84 88
342 343 342 340 338 337 336 335 342 351 359 7 10 11 13 15 14 12 12 13 14 15 18 19 19 17 15 17 21 22 22 27 33 37 39 42 47 53 61 69 76 82 86 91
339 340 337 333 326 313 310 315 315 327 346 357 4 8 12 15 15 13 14 16 19 20 22 23 22 21 21 22 21 21 25 29 30 31 33 38 43 50 60 69 77 85 92 97
334 335 331 324 310 285 272 276 283 291 315 337 350 358 7 14 16 17 18 22 24 24 25 25 23 22 25 29 31 34 37 35 32 32 35 40 45 52 61 68 76 86 93 97
327 328 323 311 291 267 254 251 252 258 279 308 328 342 357 8 14 18 21 24 24 24 26 27 26 28 33 37 41 44 45 44 41 41 43 47 53 60 68 73 78 86 92 96
320 320 312 295 279 260 247 243 240 245 257 275 296 317 341 358 9 17 24 25 24 25 29 32 35 38 41 44 46 47 47 48 49 51 55 60 65 70 75 79 84 87 91 94
Height
5755 5756 5756 5757 5759 5760 5762 5763 5765 5766 5766 5766 5767 5767 5767 5766 5766 5766 5766 5766 5766 5766 5766 5766 5766 5766 5766 5766 5765 5764 5762 5760 5759 5756 5755 5752 5750 5748 5746 5743 5740 5738 5734 5731
5751 5751 5751 5752 5753 5755 5756 5757 5758 5759 5759 5759 5759 5759 5758 5758 5758 5757 5757 5756 5756 5756 5757 5756 5756 5756 5756 5756 5755 5753 5750 5748 5746 5744 5743 5740 5738 5735 5733 5730 5727 5724 5721 5717
5748 5748 5748 5748 5749 5750 5750 5751 5752 5752 5753 5752 5752 5752 5751 5750 5749 5749 5748 5748 5747 5747 5747 5747 5747 5747 5747 5746 5744 5742 5739 5737 5734 5732 5730 5728 5725 5722 5719 5717 5714 5711 5707 5704
5746 5746 5745 5747 5745 5745 5745 5745 5745 5745 5745 5744 5744 5744 5743 5742 5741 5741 5740 5739 5739 5738 5738 5738 5738 5737 5736 5735 5732 5730 5728 5726 5723 5720 5717 5714 5712 5709 5706 5703 5700 5696 5693 5690
5744 5743 5742 5741 5740 5739 5739 5738 5738 5738 5737 5737 5737 5737 5736 5734 5734 5734 5733 5732 5731 5730 5730 5729 5728 5727 5725 5724 5722 5719 5717 5714 5712 5709 5705 5702 5699 5696 5693 5690 5686 5683 5679 5676
5741 5740 5739 5739 5736 5734 5734 5733 5732 5732 5731 5731 5730 5730 5729 5728 5727 5727 5726 5725 5724 5723 5722 5720 5719 5717 5715 5713 5711 5709 5706 5703 5699 5696 5693 5689 5686 5683 5679 5676 5672 5669 5665 5661
5738 5737 5735 5734 5732 5730 5730 5729 5728 5726 5726 5725 5725 5724 5723 5722 5721 5720 5719 5718 5717 5716 5714 5712 5710 5708 5706 5703 5701 5698 5695 5691 5687 5683 5680 5676 5673 5669 5666 5662 5658 5655 5652 5648
5735 5733 5733 5729 5727 5727 5725 5723 5722 5721 5721 5720 5720 5719 5718 5717 5716 5715 5713 5712 5711 5709 5707 5705 5702 5700 5697 5694 5691 5688 5684 5680 5676 5672 5668 5664 5660 5656 5652 5648 5645 5642 5638 5635
5733 5732 5728 5725 5723 5722 5720 5719 5718 5718 5717 5716 5715 5714 5714 5712 5711 5710 5708 5707 5705 5703 5700 5698 5695 5692 5689 5685 5682 5678 5674 5670 5665 5661 5656 5651 5647 5643 5640 5636 5633 5629 5626 5623
5729 5727 5724 5722 5720 5718 5717 5716 5715 5714 5713 5712 5712 5711 5710 5708 5707 5705 5703 5701 5699 5696 5694 5691 5688 5684 5681 5677 5673 5669 5665 5660 5655 5650 5645 5640 5636 5632 5629 5626 5622 5619 5616 5612
5726 5724 5721 5719 5717 5715 5713 5712 5711 5710 5710 5709 5708 5707 5706 5704 5702 5701 5698 5696 5693 5691 5688 5685 5681 5678 5674 5670 5666 5661 5656 5650 5645 5640 5635 5631 5627 5623 5619 5616 5614 5611 5607 5604
5724 5721 5718 5716 5714 5712 5711 5710 5709 5708 5707 5706 5705 5704 5702 5700 5699 5697 5694 5692 5689 5686 5683 5680 5676 5672 5668 5664 5659 5654 5649 5643 5638 5633 5628 5623 5620 5616 5612 5610 5607 5604 5602 5599
5721 5718 5715 5713 5711 5709 5708 5707 5706 5705 5704 5703 5702 5701 5699 5697 5695 5693 5691 5688 5685 5682 5679 5675 5672 5668 5664 5659 5654 5649 5644 5638 5633 5628 5623 5619 5616 5612 5609 5607 5604 5601 5599 5596
5718 5715 5713 5711 5709 5707 5706 5705 5704 5703 5702 5701 5700 5698 5697 5695 5693 5691 5688 5685 5682 5679 5676 5672 5669 5665 5661 5656 5652 5647 5641 5636 5631 5626 5622 5618 5614 5611 5608 5605 5603 5601 5599 5596
5716 5713 5711 5709 5707 5706 5705 5704 5703 5702 5700 5699 5698 5697 5695 5694 5691 5689 5686 5683 5680 5677 5673 5670 5667 5663 5659 5654 5650 5645 5640 5636 5631 5627 5622 5618 5615 5611 5609 5606 5604 5602 5600 5599
5715 5712 5709 5708 5706 5705 5704 5703 5702 5701 5700 5699 5697 5696 5695 5693 5690 5687 5684 5681 5678 5675 5672 5668 5665 5661 5657 5653 5649 5645 5641 5636 5632 5628 5624 5620 5617 5614 5611 5608 5606 5604 5603 5602
5713 5710 5708 5707 5705 5704 5703 5702 5701 5700 5699 5698 5697 5696 5694 5692 5689 5686 5683 5680 5677 5674 5670 5667 5664 5660 5656 5653 5649 5645 5642 5638 5634 5631 5627 5623 5620 5617 5615 5612 5610 5609 5608 5607
5712 5709 5707 5706 5704 5703 5702 5701 5701 5700 5699 5698 5697 5696 5694 5691 5689 5686 5683 5680 5676 5673 5670 5666 5663 5659 5656 5653 5650 5646 5643 5640 5637 5634 5630 5627 5624 5621 5619 5617 5615 5614 5613 5612
5711 5708 5706 5705 5704 5702 5702 5701 5700 5700 5699 5698 5697 5696 5694 5691 5689 5686 5683 5679 5676 5673 5669 5665 5662 5659 5656 5653 5650 5647 5645 5642 5639 5636 5634 5631 5628 5626 5624 5622 5620 5619 5618 5618
5710 5707 5705 5704 5703 5702 5701 5701 5700 5700 5699 5698 5697 5696 5694 5691 5689 5686 5683 5679 5675 5672 5668 5665 5661 5658 5655 5653 5650 5648 5646 5644 5642 5639 5637 5634 5632 5630 5628 5627 5625 5624 5624 5623
5709 5706 5704 5703 5702 5702 5701 5701 5700 5700 5699 5699 5698 5696 5694 5692 5689 5686 5683 5679 5676 5672 5668 5664 5661 5657 5655 5653 5651 5649 5647 5646 5644 5642 5640 5638 5636 5634 5632 5631 5630 5629 5628 5628
5707 5705 5703 5702 5701 5701 5701 5700 5700 5700 5700 5699 5698 5696 5695 5692 5690 5687 5684 5680 5676 5673 5669 5665 5661 5658 5655 5654 5652 5650 5649 5647 5645 5643 5642 5640 5638 5637 5636 5635 5634 5633 5632 5632
5706 5704 5702 5701 5701 5700 5700 5700 5700 5700 5700 5699 5698 5697 5695 5693 5691 5688 5685 5681 5677 5674 5670 5667 5663 5660 5657 5655 5653 5651 5650 5648 5647 5645 5643 5642 5641 5639 5638 5637 5636 5636 5635 5635
5704 5702 5701 5700 5700 5700 5700 5700 5700 5700 5700 5699 5699 5697 5696 5694 5692 5689 5686 5683 5679 5675 5672 5669 5666 5663 5659 5656 5654 5652 5651 5649 5648 5646 5645 5643 5642 5641 5640 5639 5638 5638 5637 5637
5702 5701 5700 5699 5699 5699 5699 5699 5699 5700 5700 5699 5699 5698 5696 5695 5693 5691 5688 5684 5681 5678 5675 5672 5669 5666 5662 5659 5656 5654 5652 5651 5649 5648 5646 5645 5643 5642 5641 5640 5640 5639 5639 5639
5700 5699 5698 5697 5697 5698 5698 5698 5699 5699 5699 5699 5699 5698 5697 5695 5694 5691 5689 5686 5683 5680 5677 5675 5672 5669 5665 5662 5659 5656 5654 5653 5651 5649 5648 5646 5645 5644 5643 5642 5642 5641 5641 5641
5698 5697 5696 5696 5696 5696 5696 5697 5697 5698 5698 5698 5698 5698 5697 5696 5695 5693 5691 5688 5686 5684 5681 5678 5676 5673 5669 5666 5663 5660 5658 5656 5654 5652 5650 5649 5647 5646 5645 5645 5644 5644 5644 5644